Wind_Speed
35 34 34 34 33 33 33 33 33 32 32 32 33 36 38 41 46 52 54 52 50 50 52 51 49 50 52 54 54 54 55 55 54 54 53 53 52 51 51 50 50 50 51 52 52 52 51 50 49 48 49 50 52 53 54 54 53 52 52 51 49 49 50 49 48 47 47 47 43 40 39 37 34 34
38 37 37 37 36 36 35 35 35 35 34 33 34 35 37 38 41 44 49 52 51 50 52 54 52 50 51 53 55 56 56 56 56 56 56 56 55 54 54 54 53 53 53 53 53 53 52 51 50 49 49 50 53 55 57 57 56 54 54 55 55 54 54 53 51 49 50 50 48 44 42 40 38 38
41 40 40 40 39 39 38 38 37 36 36 36 35 35 37 39 40 41 43 46 50 51 51 54 56 54 52 51 52 55 57 58 59 58 57 58 58 57 57 57 57 57 56 56 56 55 55 54 53 53 52 51 52 55 58 59 59 57 55 56 57 56 56 54 52 51 51 52 51 49 46 44 43 42
44 44 43 43 43 42 42 41 40 39 38 38 38 37 38 39 40 41 42 43 45 48 50 52 55 57 57 54 52 52 55 57 60 60 60 59 59 59 59 59 59 60 60 59 59 58 58 57 57 57 56 55 53 53 56 59 61 61 58 57 58 58 57 55 54 54 54 54 54 52 50 49 47 45
44 46 46 46 46 45 45 44 43 42 41 41 40 40 40 40 41 42 43 44 44 45 48 50 52 55 57 58 57 55 54 55 57 59 61 61 61 61 61 60 61 61 62 62 62 61 61 61 61 60 60 59 58 56 55 57 60 62 62 61 60 60 59 59 58 58 58 57 55 55 54 53 51 49
43 45 47 48 49 48 48 47 46 46 45 44 43 43 43 43 43 43 44 45 46 46 47 48 50 52 55 57 59 59 58 57 56 57 59 61 63 63 63 63 62 63 63 64 64 64 63 62 62 62 62 61 60 60 59 58 60 62 63 64 64 64 63 62 62 61 60 58 57 57 56 56 54 53
42 43 45 47 49 50 50 50 50 49 48 48 47 46 46 46 46 46 46 46 47 47 48 48 49 51 52 54 57 58 59 60 59 58 58 60 62 63 64 64 64 64 64 65 66 66 66 65 64 63 63 62 62 62 62 60 60 62 63 64 66 66 66 65 64 63 61 60 59 59 58 58 57 56
46 46 46 47 48 50 51 51 52 52 51 51 51 50 50 50 50 50 50 50 50 50 50 50 51 51 52 53 55 57 58 60 61 61 60 60 62 63 64 64 65 65 65 66 66 67 67 67 66 65 65 64 64 64 63 61 60 61 63 63 64 67 68 68 66 65 63 62 61 61 60 60 60 59
54 54 54 54 53 52 52 52 52 52 52 53 53 54 53 53 53 53 52 52 52 52 52 53 53 53 53 54 54 56 57 58 60 61 62 62 62 62 63 65 66 67 67 67 67 68 68 68 68 68 68 67 67 66 66 65 63 62 63 63 64 66 68 69 68 67 66 65 64 64 63 63 62 62
60 61 61 60 59 58 57 56 54 53 53 53 54 55 56 56 56 56 55 55 55 55 55 55 55 56 56 56 56 57 57 58 59 60 62 62 63 63 63 64 65 67 68 69 69 70 70 70 70 70 69 69 69 68 68 68 67 66 66 65 65 66 68 69 70 69 69 68 67 67 67 66 66 65
64 64 63 62 61 60 60 59 58 57 56 56 56 56 56 57 58 58 58 58 58 58 57 58 58 58 58 59 59 59 59 60 60 61 62 62 63 63 64 64 64 66 68 69 70 71 72 72 72 72 72 71 70 70 70 69 69 69 69 68 68 68 69 70 71 71 71 71 71 70 70 70 69 69
65 64 63 62 61 60 60 60 60 60 60 60 60 59 58 58 58 59 59 60 60 61 61 61 61 61 61 61 61 61 62 62 63 63 63 64 64 64 64 65 65 65 67 67 69 70 72 73 74 74 75 74 73 73 72 72 71 71 71 70 70 70 70 71 72 72 73 73 73 73 73 73 73 73
63 62 61 60 60 59 59 60 61 61 62 62 62 62 62 61 61 60 60 60 61 62 63 63 64 64 64 63 63 63 63 64 65 65 65 66 66 66 66 66 67 66 67 67 68 70 71 72 74 75 76 77 77 76 76 75 75 74 74 73 73 73 73 73 74 75 75 75 75 75 76 76 76 76
60 59 59 59 59 58 59 59 60 61 63 63 64 64 64 64 64 63 63 62 62 63 63 65 65 66 67 67 66 66 66 66 67 68 68 68 68 69 68 69 69 68 68 68 69 70 71 71 72 74 75 76 77 78 78 78 78 78 78 77 76 76 76 76 77 78 78 79 78 78 78 79 79 79
58 57 58 58 58 58 59 59 60 61 62 63 64 65 66 66 66 66 66 66 65 65 66 66 67 67 68 69 69 69 69 69 69 69 70 70 70 71 71 72 72 71 70 69 70 72 72 71 72 74 75 76 77 77 78 79 80 81 81 81 81 80 80 80 81 81 82 82 82 82 82 82 81 81
58 57 57 57 58 59 59 59 60 61 62 63 64 66 67 67 67 68 68 68 68 69 69 69 69 69 69 70 71 70 71 71 72 72 72 72 72 73 73 74 75 76 74 72 71 74 75 74 73 75 77 77 77 77 77 78 79 80 81 82 82 83 84 84 85 85 85 85 85 86 85 85 84 83
62 60 59 59 59 60 59 60 60 61 61 62 63 65 66 66 67 68 68 68 69 71 71 71 72 72 72 72 72 72 72 72 73 74 74 75 74 75 76 76 77 79 79 76 74 75 78 78 76 76 78 79 78 78 79 79 80 80 80 81 81 82 84 85 86 87 88 88 88 88 88 87 87 86
66 64 63 62 62 62 61 61 62 62 62 62 62 64 65 66 68 69 69 69 69 70 72 74 75 75 74 74 74 74 74 74 74 75 76 77 77 77 77 78 79 81 82 80 77 76 80 82 80 78 80 81 80 80 81 81 82 82 82 82 82 83 83 83 85 86 87 89 89 90 90 90 90 89
68 66 66 65 65 64 64 63 63 64 64 64 65 65 66 67 68 68 69 70 70 71 72 74 76 76 76 76 75 75 75 74 75 75 76 77 78 78 79 80 81 82 84 84 81 79 81 84 83 82 83 83 83 83 83 83 84 84 84 84 85 85 85 85 85 86 86 87 88 88 89 90 90 91
69 68 68 68 67 67 67 66 66 66 66 66 66 67 67 67 67 67 68 69 70 70 71 72 74 76 77 77 76 75 75 75 75 75 76 77 78 79 80 81 83 84 85 86 85 83 83 85 85 85 86 86 85 86 86 86 86 86 86 86 86 87 87 88 88 89 89 89 89 89 89 89 90 90
71 70 70 70 70 70 69 69 68 68 68 68 68 69 69 69 69 69 69 69 69 70 70 71 72 74 76 76 76 75 74 74 75 75 76 78 79 79 80 81 83 85 86 87 87 85 84 85 86 87 88 88 88 88 89 89 89 88 88 89 89 88 88 89 89 90 91 92 92 92 92 92 92 92
73 73 73 72 72 72 72 72 72 72 71 71 71 71 72 73 73 72 71 70 70 70 71 72 73 74 75 76 77 77 77 77 78 77 78 79 80 80 81 82 83 84 86 88 89 88 87 87 87 86 88 89 90 91 91 92 92 92 91 91 91 91 91 91 91 91 92 92 93 94 95 95 96 96
74 75 75 75 75 75 75 75 75 75 75 75 75 75 75 75 76 76 75 75 74 73 73 73 74 75 77 78 79 80 81 81 81 81 80 81 81 81 82 83 84 84 86 89 90 90 89 89 89 88 88 88 90 92 92 93 94 95 94 94 93 93 94 94 94 94 94 94 94 94 95 96 97 97
76 77 77 77 77 77 77 77 78 78 78 78 77 77 77 77 77 78 78 79 79 78 77 77 76 77 77 78 78 79 80 81 82 82 82 82 83 82 82 83 84 84 86 89 91 91 91 91 91 91 90 89 89 91 93 94 95 96 96 96 96 96 95 95 96 96 97 97 96 96 96 97 97 98
79 79 79 79 80 79 80 80 80 80 80 80 80 79 79 79 79 79 79 80 80 80 81 80 80 80 80 80 80 80 81 82 82 83 83 84 84 83 83 83 84 84 85 88 90 91 91 91 92 92 92 92 91 91 92 94 95 97 98 98 97 97 97 97 97 97 98 99 99 98 98 98 99 100
80 80 81 81 81 82 82 82 82 81 81 81 82 82 81 81 81 80 80 80 80 80 81 81 82 82 83 83 83 82 82 83 83 83 84 84 84 83 83 83 84 84 86 87 89 89 89 90 91 91 92 92 92 92 92 93 95 97 99 99 99 98 98 98 98 99 99 100 100 100 100 100 100 101
81 81 81 82 82 82 82 82 82 83 83 83 83 83 82 82 82 81 81 81 81 81 81 81 82 82 83 83 82 82 82 82 82 82 82 82 81 81 82 82 82 83 84 86 88 88 87 88 89 90 91 91 92 92 92 92 94 96 98 100 101 100 99 99 99 100 101 101 101 101 101 101 101 102
81 81 81 81 81 81 81 82 82 82 83 83 83 83 82 82 82 81 81 81 81 81 81 82 82 82 82 82 82 81 81 81 80 80 79 79 79 79 80 80 81 81 82 83 84 85 85 85 86 87 88 89 90 90 91 92 93 94 96 99 101 101 100 100 100 100 101 101 101 101 101 101 101 102
79 79 79 79 78 78 79 79 80 81 81 81 81 81 81 81 81 80 80 80 80 79 80 80 80 81 81 81 80 80 79 78 77 77 76 76 76 77 78 78 79 80 80 79 79 80 80 81 81 82 83 84 85 86 87 88 90 91 93 95 98 100 100 100 100 100 101 101 101 101 101 101 101 101
76 76 75 74 74 75 75 76 77 77 77 77 77 78 78 78 78 78 78 78 78 77 77 77 77 78 77 77 77 76 75 74 73 73 72 73 74 75 75 75 76 77 76 74 73 73 73 73 75 76 78 80 81 82 83 84 85 86 88 90 92 95 96 96 97 98 99 100 100 100 101 101 101 100
72 70 70 69 70 70 71 72 72 72 72 72 73 73 73 74 74 74 74 75 75 75 75 75 75 74 74 73 73 72 71 70 70 69 69 69 70 70 70 70 71 71 70 68 66 66 66 67 69 70 72 75 77 79 80 80 81 82 84 86 87 89 91 91 91 92 94 95 97 98 98 98 98 98
67 66 65 65 66 66 66 67 67 66 67 67 67 68 68 68 69 69 70 70 70 71 71 71 70 70 70 69 68 67 66 66 66 66 65 64 64 65 65 65 65 65 64 62 60 59 60 62 63 65 66 68 71 73 74 75 76 78 79 81 82 83 85 86 86 86 87 89 91 92 93 93 93 93
63 62 62 62 62 62 62 62 62 62 62 62 62 63 63 63 63 64 65 65 66 66 65 65 65 65 64 64 63 62 61 62 62 62 60 59 59 60 60 60 60 60 59 58 55 54 55 56 57 59 60 61 63 66 67 69 70 71 72 74 76 77 78 80 80 81 81 82 84 86 86 87 87 88
59 59 58 58 58 58 58 58 58 58 59 59 58 58 58 58 59 59 60 60 61 61 60 60 60 59 59 58 57 57 58 58 58 56 55 54 55 54 54 54 54 54 54 53 51 50 50 51 51 53 54 55 57 59 61 62 64 64 65 66 69 70 72 73 74 75 76 76 78 79 80 80 81 82
57 56 56 55 55 55 55 55 55 55 55 55 55 54 54 54 55 56 56 56 56 56 56 56 55 54 53 53 53 54 54 53 52 51 50 50 50 50 50 50 50 49 49 49 48 47 46 46 47 48 50 51 53 55 55 56 58 59 59 60 62 64 65 66 67 69 70 70 71 71 72 72 73 73
54 54 54 53 53 52 52 52 52 52 52 51 51 51 51 51 51 52 52 52 51 51 51 50 48 48 48 49 49 49 48 47 47 47 47 46 46 46 46 46 46 46 46 46 46 45 44 44 44 45 46 47 49 50 49 49 51 54 54 54 56 58 59 61 62 63 64 64 64 65 65 65 65 65
52 52 51 50 49 49 49 49 49 49 48 48 47 48 48 48 47 47 47 47 47 47 45 43 43 44 45 45 45 44 43 42 43 44 44 44 44 43 43 43 43 43 43 43 42 40 40 40 40 40 41 42 44 44 43 42 44 47 48 48 49 50 53 54 56 57 58 58 58 59 59 59 59 59
49 48 48 47 46 46 46 46 46 45 45 44 44 44 44 44 43 43 43 43 43 41 39 38 39 41 42 42 41 40 39 40 41 41 41 41 40 40 39 39 38 38 38 37 36 34 34 35 35 35 35 37 38 39 38 38 38 41 42 42 42 43 45 46 48 49 50 50 51 51 52 53 54 54
46 45 44 44 44 44 44 43 42 42 42 42 42 41 41 40 40 41 41 40 39 37 35 36 37 38 38 38 38 37 38 38 38 38 38 37 37 36 35 35 34 33 33 32 30 30 30 31 31 31 31 32 33 34 35 35 34 35 37 38 37 38 38 40 41 43 43 43 44 45 46 47 47 48
43 42 42 42 42 42 41 40 40 40 40 39 39 39 38 38 39 39 39 37 35 34 34 35 35 35 35 36 35 36 36 36 35 34 34 33 33 33 32 32 31 30 30 29 28 28 29 29 29 29 28 29 29 30 31 31 30 31 33 34 34 34 34 35 36 38 38 39 40 41 41 42 42 43
41 40 40 40 40 40 39 39 38 38 38 38 38 37 37 38 38 38 37 35 33 33 34 34 33 33 33 34 34 34 33 31 31 31 31 31 31 30 30 30 29 29 29 29 28 28 28 29 29 28 27 27 26 26 27 27 26 27 29 30 31 31 31 31 32 33 34 36 37 38 38 38 38 39
40 39 39 39 38 38 37 37 37 37 37 38 37 37 37 38 38 38 36 34 32 33 34 34 32 31 31 32 32 31 29 28 28 29 29 29 29 28 27 27 28 28 28 27 27 27 27 28 28 28 27 25 24 24 24 24 24 25 26 27 28 28 27 27 28 30 31 33 34 34 34 35 35 36
38 38 38 38 37 37 37 37 37 37 38 38 37 37 37 38 38 37 36 33 32 33 33 32 31 30 30 29 29 28 27 27 27 27 27 27 26 26 25 24 25 25 25 25 25 25 26 26 27 26 25 23 21 21 22 22 22 23 24 25 24 24 23 23 24 26 29 31 31 31 31 32 32 33
37 37 37 37 37 37 37 37 37 38 38 38 37 37 37 38 37 36 35 33 32 32 32 30 29 29 28 27 26 26 26 26 26 25 25 25 24 23 22 22 22 22 22 23 23 23 23 24 24 24 23 21 19 19 19 21 21 22 22 22 22 22 21 21 22 23 26 27 27 28 28 29 29 30
37 37 37 37 37 37 37 37 38 39 38 37 37 37 37 37 36 35 34 32 31 31 30 28 27 27 27 25 25 25 25 25 25 24 23 22 21 21 20 20 20 19 20 20 21 21 21 21 21 21 21 19 18 17 18 20 21 21 20 20 20 21 21 21 21 22 23 23 24 25 26 26 26 26
Wind_Direction
272 271 271 271 270 269 267 266 264 263 264 264 261 255 250 245 242 242 243 242 239 237 236 237 238 240 241 242 243 243 244 244 245 246 247 248 249 250 250 250 248 248 248 249 249 250 251 251 251 252 252 250 250 249 245 245 246 247 248 248 249 251 253 257 260 263 267 271 271 265 259 260 262 263
268 268 268 268 268 268 267 266 264 262 261 261 260 256 252 250 247 245 245 245 243 240 237 236 237 238 240 242 244 245 246 246 246 246 247 248 248 249 251 252 252 251 251 251 251 251 251 251 252 253 253 252 250 250 249 248 248 248 247 247 250 252 254 257 260 261 264 268 270 266 263 263 264 265
265 265 266 266 266 265 265 264 263 262 261 259 259 257 254 251 250 249 248 247 246 243 240 238 237 238 239 241 242 243 245 246 247 247 248 248 249 250 251 252 252 253 253 253 253 253 253 253 253 253 254 254 252 250 250 250 251 251 249 247 248 250 252 255 258 260 262 264 267 267 264 264 264 264
265 264 264 264 264 264 264 264 263 262 261 260 258 257 255 253 252 251 250 249 248 247 244 242 239 239 240 242 242 241 242 244 246 248 248 248 249 251 252 252 253 253 253 254 254 254 254 254 254 254 254 255 254 252 251 252 252 252 252 249 247 248 250 253 255 259 261 262 264 264 263 263 264 264
265 265 264 263 263 263 263 264 264 263 262 260 259 258 256 255 254 253 252 251 250 249 248 246 244 242 242 243 244 243 242 242 243 245 248 249 249 250 251 252 253 254 253 253 254 255 255 255 255 255 255 255 254 252 252 253 252 252 252 251 249 248 249 251 254 257 259 261 261 261 261 262 263 263
264 264 265 264 264 263 263 262 263 263 263 261 260 259 258 256 255 255 254 253 252 251 251 250 249 247 246 245 245 245 246 245 244 243 244 247 249 250 251 251 252 253 254 254 254 255 255 256 256 256 256 256 255 253 253 254 253 252 252 251 251 250 250 251 254 256 257 258 259 259 260 260 262 263
265 266 266 266 266 265 264 262 262 261 261 261 261 260 258 257 256 255 254 254 253 252 251 251 251 250 249 249 248 247 247 248 248 246 244 244 245 247 249 250 251 252 252 253 254 255 256 257 257 257 257 257 257 255 254 254 253 252 251 251 251 252 252 252 254 255 256 256 257 258 259 261 262 263
271 271 271 270 269 267 265 264 263 261 260 259 259 259 258 257 256 255 255 254 254 253 252 252 251 251 251 251 251 250 249 249 249 249 248 246 245 244 245 247 249 250 251 251 252 253 255 257 257 258 258 258 258 257 256 255 254 251 250 250 251 251 252 253 254 255 256 256 257 257 259 261 262 263
272 273 273 273 272 270 267 264 263 262 261 260 259 258 258 257 256 256 255 255 255 255 254 254 253 253 252 251 252 252 252 251 251 251 251 250 248 247 245 245 246 248 249 250 251 251 252 254 256 257 257 258 258 258 258 257 256 253 251 250 250 250 251 252 254 255 256 256 257 258 259 260 261 262
271 273 273 273 272 271 269 266 263 262 261 261 260 259 258 257 256 256 256 256 255 255 255 255 255 255 255 254 253 253 253 253 252 252 252 251 251 250 248 246 245 245 246 248 249 250 251 251 252 254 255 256 256 257 257 257 257 256 254 252 251 250 250 252 253 254 255 255 256 257 258 259 260 260
272 273 273 272 271 269 268 267 265 264 263 262 261 261 261 259 257 257 257 256 256 255 254 254 255 255 255 256 255 255 255 255 254 254 253 252 252 252 251 249 247 245 245 246 247 248 250 250 251 251 252 253 254 254 255 255 256 256 255 255 253 252 251 252 252 253 254 255 256 257 258 259 260 260
273 273 272 271 269 268 267 266 265 264 263 263 262 262 262 260 258 257 257 257 256 256 255 254 254 254 254 254 255 255 256 256 256 256 256 255 254 253 253 253 251 249 247 246 246 247 248 249 250 251 251 252 252 253 253 253 253 254 254 255 255 254 254 253 253 254 254 255 256 257 258 259 259 260
273 272 271 270 268 267 265 264 264 264 263 263 263 263 262 261 259 258 257 257 257 257 256 256 256 255 254 254 254 254 254 255 256 257 257 257 257 255 254 254 254 253 251 250 249 248 247 248 250 250 251 252 252 252 253 253 253 253 253 254 254 254 255 255 255 255 256 256 257 258 258 259 260 261
270 270 269 269 268 266 265 264 263 263 263 263 263 263 262 262 261 259 258 258 257 257 257 257 257 257 256 256 255 255 255 254 255 256 256 256 257 257 257 256 255 254 254 254 253 252 250 249 250 250 251 252 252 253 254 254 253 253 253 253 253 254 254 255 255 256 256 257 258 259 259 260 261 261
267 267 267 267 267 266 265 264 264 263 262 262 262 261 261 261 260 260 259 259 259 258 258 257 257 257 257 257 256 256 256 256 255 255 256 256 256 257 258 258 257 256 255 255 256 256 254 252 251 251 251 251 251 252 253 254 254 254 254 254 254 254 255 255 255 255 256 257 258 259 260 261 261 261
270 268 267 267 266 266 265 265 265 264 264 263 261 261 260 260 260 259 259 259 259 259 259 258 257 257 256 256 256 256 256 257 257 256 256 256 256 257 257 258 259 258 256 254 255 257 257 256 254 254 254 253 252 251 251 252 254 255 255 255 255 255 255 255 256 256 256 257 258 259 260 260 261 261
274 272 270 268 267 266 266 265 264 264 264 263 262 262 261 261 260 260 259 258 258 258 258 258 257 256 256 256 256 256 256 256 257 257 257 257 257 257 258 258 259 259 258 256 255 256 258 257 256 256 256 256 255 254 253 252 252 253 254 255 255 255 255 256 256 257 257 258 258 259 259 260 260 260
274 274 272 271 269 268 267 266 265 264 263 263 262 263 263 263 262 262 261 260 258 257 257 257 257 256 256 256 256 257 257 257 257 258 258 258 258 257 257 258 258 259 260 259 256 256 257 258 257 256 257 257 257 257 256 255 254 253 253 253 254 254 255 255 256 256 257 258 258 259 259 260 260 260
273 273 273 272 271 270 268 267 266 266 265 264 263 263 263 263 263 263 262 262 261 260 258 257 257 257 256 256 256 257 258 258 258 259 259 259 259 258 258 258 258 258 259 259 258 257 258 259 259 258 258 258 258 257 257 257 257 256 255 255 254 254 255 255 255 255 255 256 256 257 258 259 259 259
272 272 272 272 272 271 271 270 269 268 267 267 266 265 264 263 263 262 262 261 261 261 261 261 260 258 257 256 256 256 257 258 259 259 259 259 259 259 259 258 258 258 258 259 259 258 258 259 259 260 259 259 259 259 259 258 258 258 257 257 256 256 255 256 256 256 256 256 256 256 256 256 257 258
271 271 271 271 271 271 271 271 271 270 269 269 268 268 267 266 265 263 262 260 260 260 260 261 260 259 257 257 256 256 257 258 259 260 260 260 259 259 259 259 259 259 259 259 259 258 258 258 259 260 260 261 260 260 260 260 259 259 259 259 258 258 257 256 256 257 257 257 257 257 257 257 257 257
270 271 271 271 271 271 271 271 271 270 270 269 269 268 268 267 267 266 265 264 263 261 260 259 258 258 257 256 256 256 257 258 260 260 261 261 260 260 259 258 258 259 259 259 259 259 258 258 258 258 260 261 261 261 261 261 260 260 259 259 259 259 259 258 258 258 257 257 258 258 259 259 258 258
270 271 271 271 272 272 271 271 271 270 270 269 269 268 267 267 268 268 269 268 267 266 264 263 261 260 259 258 258 258 259 260 260 261 262 262 261 261 260 259 259 259 260 260 260 260 259 259 258 258 258 259 261 262 262 262 261 261 260 260 259 259 259 259 259 259 259 258 258 258 259 260 260 260
271 271 271 271 271 272 272 271 271 271 270 270 270 269 269 268 268 268 268 268 268 268 268 268 267 266 265 264 263 263 263 263 263 263 263 263 263 262 261 261 260 259 259 260 260 260 260 260 260 260 259 259 259 260 261 262 262 262 261 261 260 259 259 258 258 258 259 259 258 258 259 259 260 260
272 272 272 272 272 272 271 271 271 271 271 271 271 271 270 269 269 268 268 268 268 268 269 269 269 269 269 268 268 267 267 267 266 266 265 265 264 263 263 262 262 261 261 260 260 260 261 261 260 260 260 260 259 259 260 261 262 262 262 261 261 261 260 259 259 258 258 258 258 258 258 258 259 259
271 271 271 271 271 271 271 271 271 271 271 271 271 271 271 270 270 270 270 269 269 269 269 269 269 269 269 269 269 268 268 268 267 267 266 266 265 265 264 263 263 263 263 262 262 261 261 261 261 260 260 260 259 258 259 260 261 262 263 262 262 261 261 260 260 259 259 258 258 258 258 258 258 258
270 270 270 270 270 270 270 271 271 271 271 271 271 271 271 271 271 271 271 271 271 271 271 270 270 270 270 270 270 270 269 269 269 268 268 268 267 267 266 265 265 264 263 263 263 263 262 261 262 261 260 260 259 259 258 258 258 259 261 262 262 262 262 261 261 261 260 260 259 259 259 258 258 258
271 270 270 270 270 270 270 270 270 270 270 270 271 271 272 272 272 272 272 272 272 272 272 271 271 272 272 272 272 272 271 271 271 271 270 270 270 270 269 268 267 266 265 264 264 264 264 263 263 262 262 261 261 260 260 259 258 258 258 260 261 262 262 262 262 262 262 262 262 261 261 261 260 259
270 270 270 270 270 270 270 270 270 270 270 270 271 271 271 272 272 272 273 273 273 272 272 272 272 272 273 273 273 273 273 273 273 273 273 273 272 272 271 270 269 268 267 266 265 265 265 265 264 264 264 264 263 263 262 261 260 260 259 259 260 260 261 261 261 262 262 262 263 263 262 262 262 262
270 270 271 271 271 270 270 270 269 270 270 271 271 272 272 272 273 273 273 274 274 274 273 273 273 273 273 274 274 274 274 275 275 275 275 274 274 273 272 271 270 269 268 268 267 267 266 266 266 265 265 265 264 264 263 262 262 261 261 260 260 260 260 260 260 261 261 262 262 262 262 263 263 263
271 271 271 271 270 270 269 269 270 270 271 271 272 272 272 273 273 274 274 274 274 274 274 274 274 275 275 275 276 276 277 277 277 277 276 275 274 274 273 273 272 271 271 270 269 268 268 267 265 264 263 263 263 262 262 262 261 261 261 260 260 260 261 260 260 260 260 261 261 262 262 262 263 263
271 270 270 270 269 269 269 270 270 271 271 272 272 272 273 273 273 274 274 274 274 274 275 275 275 276 276 277 277 278 279 278 278 276 276 275 275 275 275 275 274 274 273 272 270 269 268 267 265 264 263 262 262 262 262 262 261 261 261 261 261 261 261 261 261 261 260 261 261 262 262 262 262 262
270 269 269 269 269 269 269 270 271 271 271 272 272 272 273 273 273 273 273 274 274 274 275 275 276 276 277 278 279 279 279 277 276 276 276 277 276 276 275 275 275 274 274 273 272 270 269 267 266 265 264 263 262 262 262 262 261 261 261 261 261 262 262 262 262 262 261 261 261 261 261 262 262 262
268 268 268 268 269 269 270 270 271 271 272 272 272 273 273 273 273 273 273 273 274 275 275 275 276 277 278 279 279 278 277 276 277 278 278 278 277 276 276 275 275 275 275 274 273 271 269 268 267 266 265 264 263 262 261 262 262 261 261 261 261 261 262 262 262 262 262 262 261 261 261 261 261 261
268 268 268 268 269 269 270 271 271 271 272 272 273 273 273 273 273 273 274 274 274 275 275 276 277 278 278 278 277 276 276 278 279 279 279 278 277 277 276 276 276 275 275 275 274 273 271 269 268 266 265 264 262 261 260 260 261 261 260 260 260 261 261 262 262 262 262 262 262 262 262 262 262 262
267 268 268 268 269 270 270 270 271 271 272 272 273 273 273 273 273 274 275 275 275 275 276 277 278 278 277 276 276 276 278 279 279 279 278 278 277 277 276 276 276 275 275 274 274 273 272 270 268 266 265 264 263 262 261 260 261 261 260 259 259 259 260 260 261 261 262 263 263 264 264 264 264 264
268 268 268 268 269 269 270 270 270 271 272 272 273 273 273 273 274 275 275 276 276 276 278 279 279 278 277 276 277 278 279 279 278 277 277 276 276 276 276 276 275 275 275 274 274 273 272 270 268 266 265 264 264 264 263 262 261 262 261 260 260 260 260 260 261 261 262 263 263 264 264 264 264 263
267 267 268 268 269 269 269 270 271 271 272 272 272 273 274 275 276 276 276 276 276 278 279 279 277 277 277 278 280 280 280 279 278 277 277 277 277 277 276 276 275 275 275 275 275 274 272 270 268 266 265 264 265 265 265 264 262 263 263 262 261 261 261 262 262 262 262 263 263 264 264 264 263 263
267 267 268 268 268 269 269 270 270 271 271 271 272 273 275 276 277 277 276 277 278 280 279 278 277 277 279 281 282 281 280 279 278 279 279 279 279 279 278 278 278 278 278 277 276 274 272 271 269 267 265 264 264 265 265 264 263 263 264 264 262 261 262 262 263 263 263 263 263 263 263 263 263 263
266 267 267 267 267 268 268 269 269 269 270 271 272 274 275 276 276 276 277 278 280 280 279 278 278 280 282 282 281 280 279 279 280 280 280 280 280 281 281 282 282 282 281 280 279 277 276 275 273 271 268 267 265 265 265 265 264 263 263 264 263 262 261 261 262 263 264 264 264 263 263 263 263 263
265 265 265 265 266 266 267 267 267 268 269 270 271 273 274 275 276 276 277 279 281 281 280 280 281 283 283 281 280 279 279 279 279 279 278 278 279 281 282 283 284 283 283 282 282 281 280 278 277 275 272 271 270 269 268 268 266 264 263 263 262 262 261 260 260 261 262 262 263 263 264 264 263 263
264 264 264 264 265 265 265 265 266 267 268 269 270 272 273 274 275 276 278 280 282 282 282 283 284 284 281 279 278 279 278 277 275 275 276 277 278 279 280 281 282 283 283 282 282 281 279 278 277 277 276 275 274 272 271 270 267 265 264 263 262 262 261 261 260 260 260 261 262 263 264 264 263 263
262 263 263 263 263 263 264 264 265 266 267 268 269 270 271 273 274 276 279 281 282 282 282 283 284 282 278 276 276 276 275 274 273 273 274 276 278 279 280 280 281 282 282 282 281 279 277 276 276 277 277 277 275 271 270 269 267 265 265 266 267 267 266 265 263 262 261 262 263 263 262 262 262 262
261 261 261 262 262 262 263 264 264 265 266 267 269 270 271 272 274 276 279 280 282 282 282 282 281 278 275 274 272 271 271 271 272 273 274 277 279 281 283 283 282 283 283 282 280 279 277 276 275 275 275 275 273 270 268 268 267 268 269 270 272 272 271 269 266 264 263 265 265 264 262 261 262 262
259 259 260 260 261 262 262 263 263 264 265 267 268 269 270 272 274 277 278 280 281 281 281 280 277 273 272 270 268 268 269 271 272 275 277 280 281 284 286 285 284 282 281 279 277 276 275 274 273 273 273 273 271 268 267 266 268 270 271 271 272 272 271 270 269 268 267 267 265 263 262 262 262 263
Height
10572 10573 10574 10574 10575 10576 10577 10578 10579 10580 10581 10582 10582 10583 10584 10586 10588 10590 10591 10593 10595 10597 10599 10600 10602 10604 10606 10608 10610 10612 10613 10615 10616 10618 10619 10620 10621 10622 10624 10625 10626 10627 10628 10630 10631 10632 10634 10635 10637 10639 10640 10640 10640 10641 10641 10642 10644 10645 10646 10647 10648 10649 10649 10650 10651 10652 10652 10653 10655 10656 10655 10656 10658 10658
10567 10568 10569 10570 10570 10571 10572 10573 10574 10575 10576 10577 10578 10579 10580 10581 10583 10585 10586 10588 10590 10592 10594 10595 10597 10598 10600 10603 10604 10606 10607 10608 10610 10611 10612 10614 10615 10616 10617 10619 10620 10621 10622 10624 10625 10626 10628 10629 10630 10631 10633 10634 10634 10634 10635 10636 10638 10639 10641 10641 10643 10644 10644 10644 10646 10647 10647 10647 10648 10650 10651 10653 10654 10653
10562 10563 10564 10565 10565 10566 10567 10568 10569 10570 10571 10572 10573 10574 10575 10576 10578 10580 10581 10582 10584 10586 10588 10590 10592 10593 10594 10596 10598 10600 10601 10601 10603 10604 10606 10607 10608 10609 10611 10612 10613 10615 10616 10617 10618 10619 10621 10622 10623 10624 10625 10627 10628 10628 10629 10630 10631 10632 10634 10636 10637 10638 10638 10639 10640 10641 10641 10641 10642 10644 10646 10647 10648 10648
10556 10557 10558 10559 10560 10560 10561 10562 10564 10565 10566 10567 10568 10569 10570 10571 10572 10574 10575 10577 10578 10580 10582 10584 10586 10587 10588 10589 10591 10593 10594 10595 10596 10597 10599 10600 10601 10602 10604 10605 10607 10608 10609 10610 10611 10612 10613 10615 10616 10617 10618 10620 10621 10622 10623 10624 10625 10626 10628 10629 10631 10632 10632 10633 10634 10635 10636 10636 10637 10638 10640 10641 10642 10643
10550 10551 10552 10553 10554 10555 10556 10557 10558 10559 10561 10562 10563 10564 10565 10566 10567 10568 10570 10571 10572 10574 10575 10577 10579 10580 10582 10583 10584 10586 10587 10588 10589 10591 10592 10592 10594 10595 10597 10598 10600 10600 10601 10602 10603 10604 10605 10606 10608 10609 10611 10612 10614 10615 10616 10617 10618 10619 10620 10622 10624 10625 10626 10627 10627 10628 10629 10631 10632 10632 10633 10635 10636 10637
10544 10545 10545 10546 10547 10549 10550 10551 10552 10553 10555 10556 10557 10558 10560 10561 10562 10563 10564 10565 10566 10568 10569 10570 10572 10573 10575 10575 10576 10578 10579 10580 10582 10583 10584 10585 10586 10587 10589 10591 10592 10593 10594 10594 10595 10596 10598 10599 10600 10601 10603 10604 10606 10607 10609 10610 10611 10612 10613 10614 10616 10618 10619 10620 10621 10622 10623 10624 10625 10626 10627 10628 10629 10630
10539 10540 10540 10541 10542 10542 10543 10545 10546 10547 10549 10550 10551 10552 10553 10554 10555 10556 10558 10559 10560 10561 10563 10564 10565 10566 10568 10568 10569 10570 10572 10573 10574 10575 10577 10578 10579 10580 10581 10583 10585 10586 10587 10587 10588 10589 10590 10591 10592 10593 10595 10596 10598 10599 10601 10603 10604 10605 10606 10607 10608 10610 10611 10613 10614 10615 10616 10617 10618 10619 10620 10621 10622 10623
10533 10534 10535 10536 10537 10537 10537 10538 10539 10541 10542 10543 10544 10545 10546 10547 10548 10549 10550 10552 10553 10555 10556 10557 10558 10559 10560 10561 10562 10562 10564 10565 10566 10567 10568 10570 10571 10572 10574 10576 10577 10578 10579 10580 10581 10582 10583 10584 10585 10586 10587 10588 10589 10591 10592 10594 10596 10597 10598 10599 10600 10601 10603 10604 10606 10607 10608 10610 10611 10612 10613 10613 10614 10615
10526 10527 10528 10530 10531 10531 10531 10532 10533 10533 10534 10535 10536 10537 10538 10539 10540 10542 10543 10545 10546 10548 10549 10550 10551 10552 10553 10554 10555 10555 10556 10557 10558 10559 10560 10561 10562 10564 10566 10568 10569 10570 10571 10572 10573 10575 10576 10576 10577 10578 10579 10580 10581 10582 10583 10585 10587 10588 10590 10591 10592 10593 10594 10595 10597 10599 10600 10602 10603 10604 10605 10606 10606 10607
10519 10519 10520 10522 10523 10523 10524 10525 10526 10527 10527 10528 10528 10529 10530 10531 10533 10534 10536 10538 10539 10540 10541 10542 10543 10544 10545 10546 10547 10548 10548 10549 10550 10550 10551 10553 10554 10555 10557 10559 10560 10561 10562 10564 10565 10566 10567 10568 10568 10569 10570 10571 10572 10574 10575 10576 10578 10579 10581 10582 10583 10584 10585 10587 10588 10590 10592 10594 10595 10596 10597 10598 10598 10599
10511 10511 10512 10513 10514 10515 10516 10517 10518 10519 10520 10520 10521 10521 10522 10523 10525 10526 10528 10530 10531 10532 10533 10534 10535 10536 10537 10538 10539 10540 10540 10541 10541 10542 10543 10544 10546 10547 10548 10549 10551 10552 10553 10555 10556 10557 10557 10558 10559 10560 10561 10562 10564 10565 10566 10567 10569 10570 10572 10573 10575 10576 10577 10578 10580 10581 10583 10585 10586 10587 10588 10589 10590 10590
10501 10502 10503 10504 10505 10507 10507 10508 10509 10510 10511 10512 10512 10513 10514 10515 10516 10518 10520 10520 10521 10522 10524 10525 10525 10527 10528 10529 10530 10531 10532 10532 10532 10533 10534 10535 10537 10539 10539 10539 10542 10543 10544 10546 10547 10548 10549 10549 10549 10550 10551 10553 10555 10555 10556 10558 10560 10561 10563 10564 10566 10568 10569 10570 10571 10572 10573 10575 10576 10577 10578 10580 10580 10581
10493 10493 10494 10495 10496 10498 10498 10499 10500 10501 10502 10503 10503 10504 10505 10506 10508 10509 10511 10511 10512 10513 10514 10515 10516 10517 10518 10520 10521 10522 10524 10524 10524 10524 10526 10526 10526 10529 10530 10530 10532 10534 10535 10538 10538 10538 10539 10540 10540 10541 10542 10543 10545 10546 10547 10549 10551 10552 10554 10556 10557 10558 10560 10561 10562 10562 10563 10565 10566 10567 10568 10569 10571 10572
10485 10485 10485 10486 10487 10488 10489 10490 10491 10492 10493 10494 10495 10495 10496 10497 10498 10500 10502 10503 10503 10504 10505 10506 10506 10507 10508 10510 10512 10513 10514 10516 10516 10515 10517 10518 10517 10518 10519 10519 10521 10524 10526 10527 10528 10527 10529 10532 10532 10531 10532 10533 10534 10536 10537 10539 10541 10542 10543 10545 10547 10549 10551 10551 10552 10552 10553 10554 10555 10556 10558 10559 10561 10562
10477 10477 10477 10478 10478 10479 10480 10481 10482 10483 10484 10485 10486 10486 10486 10487 10488 10490 10492 10494 10494 10495 10495 10496 10496 10498 10498 10499 10501 10503 10503 10505 10506 10506 10507 10509 10509 10509 10510 10509 10509 10512 10516 10518 10517 10515 10517 10522 10522 10520 10521 10522 10524 10526 10528 10529 10530 10531 10532 10535 10537 10539 10540 10540 10541 10541 10542 10543 10544 10545 10547 10549 10550 10552
10468 10469 10470 10470 10470 10471 10472 10473 10474 10475 10475 10476 10476 10476 10477 10478 10479 10480 10482 10484 10485 10485 10485 10486 10486 10488 10488 10488 10490 10492 10493 10494 10495 10496 10497 10499 10500 10500 10500 10500 10499 10498 10502 10508 10510 10505 10503 10508 10512 10510 10508 10510 10514 10516 10518 10518 10519 10520 10521 10524 10526 10527 10528 10528 10529 10530 10531 10532 10533 10535 10536 10538 10539 10541
10458 10460 10461 10462 10462 10462 10464 10465 10466 10466 10467 10467 10468 10468 10468 10469 10470 10471 10472 10475 10475 10475 10475 10476 10476 10476 10478 10478 10478 10480 10483 10484 10484 10485 10486 10487 10490 10490 10490 10491 10489 10486 10488 10495 10501 10499 10492 10492 10499 10500 10497 10498 10503 10505 10506 10507 10508 10509 10511 10512 10514 10515 10516 10517 10518 10519 10520 10521 10523 10524 10525 10527 10528 10529
10449 10450 10451 10452 10452 10453 10455 10456 10457 10458 10459 10460 10460 10460 10460 10461 10461 10461 10462 10464 10466 10466 10466 10465 10465 10466 10467 10468 10469 10469 10471 10473 10474 10475 10476 10476 10478 10480 10480 10480 10479 10476 10475 10480 10488 10491 10483 10479 10486 10490 10487 10487 10491 10492 10493 10494 10496 10499 10500 10501 10502 10503 10504 10506 10507 10508 10509 10510 10512 10513 10514 10515 10516 10518
10440 10441 10442 10442 10442 10443 10444 10446 10447 10448 10449 10451 10452 10452 10453 10452 10452 10453 10453 10453 10455 10455 10455 10455 10456 10457 10457 10458 10459 10459 10459 10462 10463 10464 10465 10465 10466 10468 10469 10469 10468 10466 10465 10466 10472 10479 10474 10469 10474 10477 10476 10477 10479 10479 10481 10482 10483 10486 10487 10488 10490 10492 10493 10494 10495 10497 10498 10499 10501 10502 10503 10504 10505 10506
10432 10432 10433 10433 10433 10433 10434 10436 10437 10438 10439 10440 10441 10442 10443 10443 10443 10443 10443 10443 10444 10444 10445 10446 10447 10447 10447 10447 10448 10448 10448 10449 10451 10453 10454 10454 10455 10457 10458 10457 10456 10455 10455 10454 10457 10464 10464 10461 10462 10464 10463 10465 10467 10467 10468 10469 10471 10473 10474 10475 10478 10480 10482 10483 10484 10484 10486 10487 10488 10490 10491 10492 10493 10494
10423 10423 10424 10424 10424 10425 10425 10426 10427 10428 10428 10429 10430 10430 10431 10431 10431 10431 10432 10433 10434 10435 10436 10436 10437 10437 10436 10436 10437 10437 10437 10438 10439 10441 10443 10442 10443 10445 10446 10446 10445 10443 10443 10442 10443 10449 10452 10451 10452 10453 10451 10451 10454 10455 10455 10455 10458 10460 10461 10462 10464 10466 10468 10470 10471 10472 10473 10474 10476 10477 10478 10480 10481 10482
10414 10414 10414 10415 10415 10416 10416 10417 10417 10417 10418 10418 10419 10419 10418 10418 10418 10419 10420 10422 10424 10425 10425 10425 10426 10426 10426 10426 10426 10425 10426 10426 10427 10429 10430 10430 10431 10433 10434 10434 10434 10433 10431 10429 10429 10433 10437 10438 10440 10442 10441 10440 10440 10440 10441 10442 10443 10445 10447 10449 10451 10452 10454 10456 10458 10459 10461 10462 10464 10464 10464 10465 10467 10468
10405 10405 10405 10406 10406 10406 10406 10407 10407 10407 10407 10407 10407 10407 10407 10407 10408 10408 10409 10410 10411 10412 10412 10413 10414 10414 10414 10415 10415 10414 10414 10415 10415 10416 10417 10418 10419 10420 10421 10422 10423 10423 10420 10416 10415 10419 10423 10424 10426 10429 10431 10431 10429 10426 10427 10429 10428 10428 10430 10434 10437 10439 10440 10442 10444 10445 10446 10448 10450 10452 10452 10452 10452 10453
10395 10396 10396 10396 10396 10396 10396 10396 10395 10395 10395 10395 10395 10396 10396 10397 10397 10397 10397 10398 10398 10399 10399 10400 10401 10402 10402 10402 10402 10402 10402 10402 10401 10402 10404 10404 10405 10408 10409 10409 10410 10412 10410 10405 10402 10406 10409 10410 10412 10414 10416 10420 10420 10416 10413 10413 10413 10413 10413 10417 10420 10423 10425 10428 10430 10430 10431 10433 10435 10438 10439 10439 10439 10440
10385 10386 10385 10385 10385 10385 10385 10384 10384 10384 10384 10384 10384 10384 10384 10384 10385 10385 10386 10386 10387 10388 10388 10388 10388 10388 10389 10389 10389 10389 10389 10389 10388 10389 10390 10390 10391 10394 10396 10397 10397 10398 10397 10393 10391 10393 10395 10396 10398 10399 10400 10404 10406 10406 10403 10400 10399 10397 10397 10400 10403 10405 10408 10412 10414 10415 10416 10417 10419 10422 10424 10426 10426 10427
10376 10375 10374 10373 10373 10373 10372 10372 10373 10373 10372 10372 10371 10371 10371 10372 10372 10373 10374 10374 10376 10376 10376 10376 10376 10376 10375 10375 10375 10376 10376 10376 10376 10376 10376 10376 10378 10380 10381 10383 10384 10384 10383 10380 10379 10380 10382 10383 10383 10384 10386 10387 10389 10391 10392 10390 10387 10383 10381 10383 10386 10389 10391 10394 10397 10398 10399 10401 10403 10406 10409 10411 10412 10413
10365 10364 10363 10363 10362 10362 10361 10361 10361 10361 10360 10360 10359 10359 10360 10360 10361 10361 10362 10363 10363 10364 10364 10364 10363 10362 10362 10362 10362 10362 10362 10362 10362 10362 10362 10363 10364 10366 10366 10367 10368 10370 10369 10366 10365 10365 10368 10370 10369 10369 10370 10371 10373 10374 10376 10377 10375 10372 10369 10367 10368 10372 10375 10378 10380 10381 10381 10384 10387 10390 10392 10395 10397 10398
10352 10352 10351 10352 10352 10351 10351 10350 10350 10349 10348 10348 10348 10349 10349 10350 10350 10350 10351 10351 10351 10352 10351 10351 10350 10349 10349 10349 10349 10349 10349 10349 10349 10349 10350 10351 10351 10351 10351 10351 10352 10353 10353 10353 10352 10352 10353 10356 10356 10355 10355 10356 10357 10358 10359 10360 10361 10360 10358 10355 10353 10355 10359 10362 10364 10365 10365 10367 10370 10373 10375 10378 10380 10383
10340 10340 10340 10341 10341 10341 10340 10339 10338 10337 10337 10337 10338 10338 10338 10339 10339 10339 10339 10340 10340 10340 10339 10339 10338 10337 10337 10337 10337 10336 10337 10337 10337 10337 10338 10339 10338 10337 10337 10337 10336 10335 10336 10338 10339 10339 10340 10342 10343 10343 10342 10342 10342 10343 10343 10344 10344 10344 10344 10343 10341 10341 10343 10347 10349 10350 10350 10352 10354 10356 10359 10361 10363 10366
10329 10330 10330 10330 10330 10329 10328 10327 10326 10326 10327 10327 10327 10327 10328 10328 10328 10328 10328 10328 10328 10328 10327 10327 10326 10326 10325 10325 10325 10325 10326 10326 10326 10326 10327 10326 10324 10322 10322 10323 10321 10319 10320 10323 10326 10327 10329 10330 10330 10330 10330 10328 10327 10327 10326 10327 10329 10329 10328 10328 10327 10326 10328 10333 10336 10336 10337 10337 10339 10341 10342 10344 10347 10350
10319 10320 10320 10320 10319 10318 10317 10316 10316 10317 10318 10318 10318 10318 10318 10318 10318 10317 10317 10317 10316 10316 10316 10315 10315 10315 10315 10314 10314 10314 10315 10315 10314 10314 10314 10313 10311 10309 10309 10310 10308 10306 10307 10310 10313 10315 10317 10317 10316 10316 10315 10314 10312 10311 10311 10313 10315 10314 10313 10313 10314 10314 10315 10318 10321 10323 10324 10324 10324 10325 10327 10329 10332 10335
10310 10310 10310 10309 10309 10308 10307 10307 10308 10308 10309 10308 10309 10309 10309 10308 10308 10307 10307 10306 10306 10305 10305 10305 10305 10305 10304 10304 10304 10305 10305 10304 10302 10302 10302 10302 10301 10299 10298 10298 10296 10295 10295 10297 10301 10304 10304 10303 10302 10302 10302 10301 10300 10298 10299 10300 10301 10300 10300 10300 10302 10303 10303 10304 10306 10309 10311 10311 10311 10311 10313 10316 10318 10321
10300 10300 10300 10300 10299 10299 10299 10299 10300 10300 10300 10300 10300 10300 10300 10300 10299 10298 10298 10297 10296 10296 10296 10296 10296 10296 10295 10295 10295 10295 10294 10292 10291 10291 10292 10292 10292 10290 10289 10288 10287 10286 10285 10286 10289 10292 10292 10291 10290 10290 10289 10290 10289 10287 10287 10287 10287 10288 10290 10290 10290 10291 10291 10292 10293 10295 10297 10299 10299 10299 10300 10303 10304 10306
10290 10291 10291 10291 10291 10291 10291 10291 10291 10291 10291 10291 10291 10291 10291 10291 10290 10290 10289 10289 10288 10288 10288 10288 10288 10288 10288 10287 10286 10285 10284 10283 10282 10283 10284 10283 10282 10280 10279 10279 10278 10277 10276 10276 10278 10280 10280 10280 10280 10279 10278 10278 10278 10276 10277 10277 10276 10278 10280 10280 10279 10279 10280 10280 10281 10282 10284 10285 10286 10287 10288 10290 10291 10293
10282 10282 10283 10283 10283 10283 10283 10284 10283 10283 10283 10283 10283 10284 10284 10283 10282 10281 10281 10281 10281 10281 10280 10280 10281 10281 10280 10279 10277 10276 10276 10275 10275 10275 10274 10273 10272 10272 10271 10270 10269 10268 10268 10267 10267 10269 10270 10270 10270 10269 10268 10267 10266 10265 10267 10268 10267 10267 10270 10270 10270 10270 10270 10270 10271 10271 10272 10273 10274 10276 10277 10278 10280 10283
10274 10274 10275 10275 10276 10276 10276 10276 10275 10275 10275 10276 10276 10276 10276 10276 10275 10274 10274 10274 10274 10273 10274 10274 10274 10273 10272 10270 10269 10269 10269 10269 10268 10267 10266 10265 10264 10264 10263 10262 10261 10260 10260 10259 10259 10259 10260 10260 10260 10259 10258 10258 10256 10256 10258 10261 10259 10258 10260 10261 10261 10261 10261 10261 10262 10262 10263 10264 10266 10267 10268 10269 10272 10274
10267 10267 10267 10268 10269 10269 10269 10268 10268 10268 10269 10269 10269 10268 10268 10268 10268 10268 10267 10267 10266 10267 10268 10268 10267 10265 10264 10263 10263 10263 10263 10262 10260 10259 10258 10258 10257 10256 10255 10255 10254 10253 10252 10252 10252 10252 10252 10251 10252 10251 10250 10249 10249 10248 10251 10253 10252 10250 10251 10253 10254 10254 10254 10254 10254 10255 10256 10257 10258 10259 10260 10261 10262 10264
10259 10260 10260 10261 10261 10261 10261 10261 10262 10262 10262 10262 10262 10262 10262 10262 10262 10261 10261 10261 10261 10261 10262 10261 10260 10258 10257 10257 10257 10257 10256 10255 10253 10252 10251 10250 10250 10249 10249 10248 10247 10246 10246 10245 10246 10246 10245 10244 10244 10245 10244 10243 10243 10243 10244 10245 10245 10244 10243 10245 10247 10247 10247 10247 10247 10248 10249 10249 10250 10251 10252 10252 10254 10255
10252 10253 10254 10254 10254 10254 10255 10255 10255 10256 10256 10255 10255 10256 10256 10255 10255 10255 10254 10255 10255 10256 10256 10255 10253 10252 10252 10251 10251 10250 10249 10247 10246 10245 10245 10244 10243 10243 10242 10242 10241 10241 10240 10240 10240 10240 10239 10238 10238 10238 10239 10238 10238 10238 10238 10239 10239 10239 10238 10239 10240 10241 10241 10241 10241 10241 10242 10243 10244 10244 10245 10245 10246 10247
10246 10247 10247 10247 10247 10248 10248 10249 10249 10249 10249 10250 10250 10250 10250 10250 10249 10249 10249 10249 10250 10250 10250 10249 10248 10248 10247 10246 10244 10243 10242 10241 10241 10240 10239 10238 10238 10237 10237 10236 10236 10236 10235 10234 10234 10234 10233 10232 10232 10232 10233 10233 10233 10233 10233 10233 10234 10234 10233 10233 10234 10235 10236 10236 10236 10236 10236 10237 10237 10237 10238 10239 10240 10241
10239 10240 10240 10240 10241 10241 10242 10243 10243 10243 10244 10244 10244 10245 10245 10244 10244 10243 10244 10245 10245 10244 10243 10243 10243 10243 10241 10239 10238 10237 10237 10237 10236 10235 10234 10234 10233 10233 10233 10232 10231 10231 10230 10229 10229 10229 10228 10227 10226 10226 10227 10227 10228 10228 10228 10228 10229 10229 10228 10228 10229 10229 10230 10231 10231 10231 10231 10231 10231 10231 10233 10234 10234 10234
10232 10233 10233 10234 10235 10236 10236 10237 10237 10238 10238 10238 10239 10239 10239 10239 10238 10238 10239 10239 10240 10239 10237 10237 10237 10237 10235 10233 10233 10233 10233 10232 10232 10231 10230 10230 10229 10230 10229 10228 10227 10226 10226 10225 10225 10224 10223 10222 10222 10222 10222 10223 10224 10224 10224 10224 10224 10223 10223 10223 10224 10225 10226 10226 10226 10226 10226 10226 10226 10227 10228 10228 10228 10229
10226 10227 10227 10228 10229 10230 10230 10231 10232 10232 10232 10233 10234 10234 10234 10234 10233 10233 10234 10234 10234 10233 10233 10232 10232 10231 10230 10229 10229 10229 10228 10228 10227 10227 10227 10226 10226 10226 10225 10225 10224 10223 10222 10221 10220 10220 10219 10218 10218 10218 10218 10219 10220 10220 10220 10219 10219 10219 10218 10219 10220 10220 10221 10222 10222 10222 10221 10221 10222 10223 10223 10223 10223 10224
10220 10221 10221 10222 10223 10224 10225 10225 10226 10226 10227 10227 10228 10229 10229 10228 10228 10228 10229 10229 10229 10228 10228 10228 10227 10226 10225 10225 10225 10225 10224 10223 10223 10223 10223 10223 10223 10222 10222 10221 10220 10219 10218 10217 10217 10216 10215 10215 10215 10215 10215 10216 10216 10216 10216 10216 10215 10215 10215 10216 10216 10216 10217 10217 10218 10218 10217 10218 10218 10218 10219 10219 10219 10220
10214 10215 10216 10216 10217 10218 10219 10220 10220 10220 10221 10222 10223 10223 10223 10223 10223 10223 10224 10224 10224 10223 10223 10223 10222 10221 10221 10221 10221 10220 10220 10220 10220 10220 10220 10220 10220 10219 10218 10217 10216 10216 10215 10214 10213 10213 10212 10212 10212 10212 10212 10213 10213 10213 10213 10212 10212 10212 10213 10213 10213 10213 10213 10214 10214 10214 10214 10214 10214 10214 10215 10215 10216 10217